{"data":{"norad_id":55677,"epoch":"2026-05-25T03:54:27.151200Z","epoch_age_seconds":64443,"freshness":"FRESH","line1":"1 55677U 23021BB  26145.16281425  .00000094  00000+0  15650-4 0  9998","line2":"2 55677  69.9994 311.5956 0002698 270.1002  89.9848 14.98331742181238","mean_motion":14.98331742,"eccentricity":0.0002698,"inclination_deg":69.9994,"raan_deg":311.5956,"arg_perigee_deg":270.1002,"mean_anomaly_deg":89.9848,"bstar":1.565e-5,"rev_number":18123,"period_min":96.106887389161,"perigee_km":570.17534336976,"apogee_km":573.9256645469,"semimajor_km":6950.1875039583,"source":"CELESTRAK","updated_at":"2026-05-25T13:38:17.877560Z"}}